This demonstration page uses our WeatherBlox Daily Observations layout. Learn more.

Left ArrowRight Arrow

Hourly Observations for March 19, 2020

Temp ( °F °C ) Dew Point ( °F °C ) Humidity (%) Winds ( mph kmh ) Pressure ( in mb ) Visibility ( mi km ) Precip ( " mm )
12:11 am 00:11 Cloudy 52 11 50 10 94 94 E 7 11 29.92 1013 7 11 0.00 0.00
12:26 am 00:26 Cloudy with Mist and Fog 52 11 50 10 94 94 E 8 13 29.92 1013 4 6 0.00 0.00
12:56 am 00:56 Cloudy with Mist and Fog 51 10.5 50 9.9 96 96 ESE 7 11 29.91 1013 3 5 0.00 0.00
1:56 am 01:56 Cloudy 51 10.7 50 10.1 96 96 E 8 13 29.91 1013 9 14 0.00 0.00
2:56 am 02:56 Cloudy 51 10.6 50 10 96 96 ESE 8 13 29.88 1012 7 11 0.00 0.00
3:56 am 03:56 Cloudy 51 10.7 50 10.1 96 96 ESE 12 19 29.83 1010 9 14 0.00 0.00
4:56 am 04:56 Cloudy with Mist and Fog 52 11 51 10.4 96 96 E 7 11 29.79 1009 6 10 0.00 0.00
5:41 am 05:41 Cloudy 52 11 52 11 100 100 E 10 17 29.76 1008 9 14 0.00 0.00
5:56 am 05:56 Cloudy with Mist and Fog 52 11.2 51 10.6 96 96 E 9 15 29.78 1008 5 8 0.00 0.00
6:11 am 06:11 Cloudy with Mist and Fog 52 11 52 11 100 100 ESE 8 13 29.78 1008 5 8 0.00 0.00
6:56 am 06:56 Cloudy with Mist and Fog 53 11.7 52 11.2 97 97 ESE 10 17 29.74 1007 5 8 0.00 0.00
7:40 am 07:40 Cloudy with Light Rain 54 12 52 11 94 94 ESE 8 13 29.70 1006 4 6 0.00 0.00
7:56 am 07:56 Cloudy with Light Rain 53 11.9 53 11.4 97 97 ESE 3 6 29.70 1006 3 5 0.06 1.52
8:38 am 08:38 Cloudy with Fog 54 12 54 12 100 100 E 8 13 29.71 1006 1 1 0.00 0.00
8:56 am 08:56 Cloudy with Fog 55 12.5 54 12 97 97 ESE 6 9 29.71 1006 0 0 0.01 0.25
9:04 am 09:04 Cloudy with Mist and Fog 55 13 54 12 94 94 ESE 7 11 29.71 1006 1 2 0.00 0.00
9:05 am 09:05 Cloudy with Mist and Fog 55 13 54 12 94 94 ESE 8 13 29.71 1006 1 2 0.00 0.00
9:20 am 09:20 Cloudy with Mist and Fog 55 13 54 12 94 94 E 8 13 29.70 1006 3 5 0.00 0.00
9:56 am 09:56 Cloudy with Rain 56 13.3 55 12.8 97 97 SE 8 13 29.68 1005 4 6 0.04 1.02
10:11 am 10:11 Cloudy with Light Rain 57 14 55 13 94 94 SE 10 17 29.69 1006 10 16 0.00 0.00
10:56 am 10:56 Cloudy with Light Rain 58 14.5 57 13.7 95 95 SSE 8 13 29.68 1005 10 16 0.00 0.00
11:18 am 11:18 Cloudy with Light Rain 59 15 57 14 94 94 S 8 13 29.67 1005 9 14 0.00 0.00
11:33 am 11:33 Cloudy with Light Rain 59 15 57 14 94 94 WNW 6 9 29.67 1005 9 14 0.00 0.00
11:48 am 11:48 Cloudy with Rain 59 15 57 14 94 94 NW 3 6 29.68 1005 6 10 0.00 0.00
11:56 am 11:56 Cloudy with Light Rain 59 14.9 57 14.1 95 95 NNW 10 17 29.68 1005 4 6 0.05 1.27
12:41 pm 12:41 Cloudy with Light Rain 52 11 50 10 94 94 NNE 8 13 29.67 1005 10 16 0.00 0.00
12:56 pm 12:56 Cloudy with Light Rain 51 10.5 49 9.7 95 95 NNE 9 15 29.67 1005 10 16 0.10 2.54
1:56 pm 13:56 Cloudy with Light Rain 52 10.9 50 10.1 95 95 NE 13 20 29.65 1004 10 16 0.01 0.25
2:56 pm 14:56 Cloudy 55 12.7 53 11.4 92 92 N 9 15 29.62 1003 10 16 0.00 0.00
3:11 pm 15:11 Cloudy 55 13 54 12 94 94 NNE 8 13 29.62 1003 10 16 0.00 0.00
3:56 pm 15:56 Cloudy 55 12.5 52 11.2 92 92 NNW 7 11 29.64 1004 10 16 0.00 0.00
4:11 pm 16:11 Cloudy 55 13 52 11 88 88 NNW 7 11 29.63 1004 10 16 0.00 0.00
4:26 pm 16:26 Cloudy 54 12 52 11 94 94 N 10 17 29.62 1003 10 16 0.00 0.00
4:52 pm 16:52 Cloudy with Thunderstorms 52 11 50 10 94 94 NNE 17 28 29.62 1003 10 16 0.00 0.00
4:56 pm 16:56 Cloudy with Thunderstorms 52 11.3 50 9.9 91 91 NNE 15 24 29.62 1003 10 16 0.00 0.00
5:37 pm 17:37 Cloudy 52 11 50 10 94 94 N 18 30 29.64 1004 10 16 0.00 0.00
5:56 pm 17:56 Cloudy 51 10.4 48 9 91 91 N 14 22 29.65 1004 10 16 0.02 0.51
6:41 pm 18:41 Cloudy 48 9 45 7 87 87 NNE 15 24 29.70 1006 10 16 0.00 0.00
6:56 pm 18:56 Cloudy 48 8.7 44 6.8 88 88 WNW 16 26 29.77 1008 10 16 0.00 0.00
7:56 pm 19:56 Cloudy 45 7.2 41 4.8 85 85 N 13 20 29.75 1008 10 16 0.00 0.00
8:32 pm 20:32 Cloudy 45 7 39 4 81 81 NNE 26 43 29.80 1009 10 16 0.00 0.00
8:56 pm 20:56 Cloudy 44 6.6 39 3.7 82 82 N 18 30 29.85 1011 10 16 0.00 0.00
9:56 pm 21:56 Cloudy 40 4.5 36 2 84 84 NNW 13 20 29.91 1013 10 16 0.00 0.00
10:56 pm 22:56 Cloudy 38 3.2 33 0.6 83 83 N 17 28 29.97 1015 10 16 0.00 0.00
11:56 pm 23:56 Cloudy with Light Rain 35 1.4 31 -0.8 85 85 NNW 22 35 30.06 1018 10 16 0.00 0.00

Powered by AerisWeather